HB9MIR-13 Weather Reports


Display with metric or nautical units.
time (UTC)temp
F
wind
direction
speed
MPH
gust
MPH
rain 1hr
in
rain 24hr
in
rain mn
in
humidity
%
barometer
mb
20260506175608 52 168 2.0 2.0 0.00 0.00 0.20 92 1008.6
20260506174442 52 240 0.0 2.0 0.00 0.00 0.20 92 1008.4
20260506173313 53 161 2.0 2.0 0.00 0.00 0.20 87 1008.3
20260506172146 53 210 1.0 1.0 0.00 0.00 0.20 88 1008.0
20260506171031 53 270 0.0 1.0 0.00 0.00 0.20 89 1008.0
20260506165850 53 120 0.0 2.0 0.00 0.00 0.20 88 1007.9
20260506164723 53 192 0.0 2.0 0.00 0.00 0.20 86 1007.8
20260506163554 53 216 1.0 3.0 0.00 0.00 0.20 86 1007.8
20260506162426 53 240 2.0 2.0 0.00 0.00 0.20 85 1007.7
20260506161300 53 204 0.0 1.0 0.00 0.00 0.20 87 1007.7
20260506160133 53 186 0.0 3.0 0.00 0.00 0.20 87 1007.8
20260506155018 53 240 0.0 3.0 0.00 0.00 0.20 87 1007.9
20260506153837 53 258 1.0 2.0 0.00 0.00 0.20 86 1007.9
20260506152709 53 240 0.0 2.0 0.00 0.00 0.20 86 1007.8
20260506151541 53 198 2.0 2.0 0.00 0.00 0.20 90 1007.8
20260506150413 53 204 0.0 2.0 0.00 0.00 0.20 89 1007.8
20260506145158 52 204 0.0 2.0 0.01 0.00 0.20 90 1007.8
20260506144018 52 180 0.0 4.0 0.01 0.00 0.20 89 1007.8
20260506142850 52 198 0.0 2.0 0.01 0.00 0.20 90 1007.7
20260506141721 52 228 0.0 3.0 0.02 0.00 0.20 89 1007.8
20260506140554 52 234 0.0 5.0 0.05 0.00 0.20 91 1007.8
20260506135337 53 234 2.0 2.0 0.06 0.00 0.19 88 1007.7
20260506134155 53 222 2.0 2.0 0.08 0.00 0.19 90 1007.6
20260506133028 52 180 1.0 3.0 0.09 0.00 0.19 92 1007.7
20260506131900 52 252 0.0 3.0 0.11 0.00 0.18 91 1007.7
20260506130732 53 228 2.0 4.0 0.10 0.00 0.15 89 1007.5
20260506125605 53 252 2.0 6.0 0.10 0.00 0.13 88 1007.4
20260506124437 54 240 3.0 4.0 0.08 0.00 0.11 88 1007.2
20260506123322 54 156 3.0 5.0 0.06 0.00 0.10 90 1006.9
20260506122141 54 150 2.0 5.0 0.05 0.00 0.08 89 1006.7
20260506121015 55 228 2.0 4.0 0.02 0.00 0.05 92 1006.5
20260506115847 55 204 1.0 3.0 0.00 0.00 0.03 90 1006.3
20260506114720 56 180 3.0 4.0 0.00 0.00 0.03 87 1006.0
20260506113503 56 222 2.0 7.0 0.00 0.00 0.03 85 1005.9
20260506112323 56 288 1.0 4.0 0.00 0.00 0.03 82 1005.8
20260506111154 57 252 0.0 5.0 0.01 0.00 0.03 81 1005.8
20260506110028 58 234 3.0 4.0 0.02 0.00 0.03 81 1006.1
20260506104900 57 222 3.0 3.0 0.02 0.00 0.03 84 1005.9
20260506103644 56 240 3.0 3.0 0.02 0.00 0.03 84 1006.0
20260506102502 57 276 0.0 1.0 0.02 0.00 0.03 86 1006.0
20260506101337 56 228 0.0 3.0 0.02 0.00 0.03 88 1006.0
20260506100209 55 240 1.0 2.0 0.00 0.00 0.01 86 1006.0
20260506095042 55 222 2.0 2.0 0.00 0.00 0.01 85 1005.8
20260506093914 56 108 0.0 2.0 0.00 0.00 0.01 82 1005.7
20260506092748 56 186 2.0 2.0 0.00 0.00 0.01 82 1005.7
20260506091633 56 186 0.0 1.0 0.00 0.00 0.01 85 1005.6
20260506090451 56 204 0.0 3.0 0.00 0.00 0.01 83 1005.5
20260506085325 56 222 0.0 0.0 0.00 0.00 0.01 83 1005.5
20260506084157 56 228 0.0 1.0 0.00 0.00 0.01 82 1005.5
20260506083030 55 210 0.0 0.0 0.00 0.00 0.01 81 1005.5
20260506081815 56 204 0.0 0.0 0.00 0.00 0.01 84 1005.5
20260506080635 56 210 0.0 0.0 0.00 0.00 0.01 82 1005.5
20260506073213 54 24 0.0 0.0 0.00 0.00 0.01 88 1005.6
20260506072046 53 240 0.0 0.0 0.00 0.00 0.01 88 1005.7
20260506070919 52 36 0.0 1.0 0.00 0.00 0.01 89 1005.7
20260506062330 49 336 0.0 0.0 0.00 0.00 0.01 96 1005.9
20260506061203 48 210 0.0 0.0 0.00 0.00 0.01 98 1005.8
20260506050318 46 54 0.0 0.0 0.00 0.00 0.01 99 1006.1
20260506043933 46 246 0.0 0.0 0.00 0.00 0.01 99 1006.0
20260506042752 45 198 0.0 1.0 0.00 0.00 0.01 99 1005.9
20260506041624 45 318 0.0 0.0 0.01 0.00 0.01 99 1006.1
20260506040456 45 252 0.0 0.0 0.01 0.00 0.01 99 1006.2
20260506035329 45 240 0.0 1.0 0.01 0.00 0.01 99 1006.3
20260506034113 46 210 0.0 0.0 0.01 0.00 0.01 99 1006.3
20260506032930 45 192 0.0 0.0 0.01 0.00 0.01 99 1006.6
20260506031803 45 204 0.0 0.0 0.00 0.00 0.00 99 1006.6
20260506030637 46 204 0.0 0.0 0.00 0.00 0.00 99 1006.6
20260506025509 46 306 0.0 0.0 0.00 0.00 0.00 99 1006.6
20260506024253 46 240 0.0 0.0 0.00 0.00 0.00 99 1006.7
20260506023059 46 54 0.0 1.0 0.00 0.00 0.00 99 1006.7
20260506021931 47 222 0.0 0.0 0.00 0.00 0.00 99 1006.6
20260506020803 47 252 0.0 0.0 0.00 0.00 0.00 99 1006.8
20260506015635 48 234 0.0 0.0 0.00 0.00 0.00 99 1006.9
20260506014508 48 276 0.0 0.0 0.00 0.00 0.00 99 1007.1
20260506013342 48 216 0.0 0.0 0.00 0.00 0.00 99 1007.2
20260506012227 48 156 0.0 0.0 0.00 0.00 0.00 99 1007.2
20260506011046 48 198 0.0 0.0 0.00 0.00 0.00 99 1007.3
20260506005918 47 216 0.0 0.0 0.00 0.00 0.00 99 1007.4
20260506004750 47 210 0.0 0.0 0.00 0.00 0.00 99 1007.6
20260506003622 47 216 0.0 0.0 0.00 0.00 0.00 99 1007.7
20260506002454 47 222 0.0 0.0 0.00 0.00 0.00 99 1007.6
20260506001326 47 174 0.0 0.0 0.00 0.00 0.00 99 1007.8
20260506000212 47 192 0.0 0.0 0.00 0.00 0.00 99 1007.6
20260505235030 48 192 0.0 0.0 0.00 0.00 0.00 99 1007.7
20260505233903 48 252 0.0 0.0 0.00 0.00 0.00 98 1007.9
20260505232735 48 198 0.0 0.0 0.00 0.00 0.00 99 1008.1
20260505231603 48 234 0.0 1.0 0.00 0.00 0.00 99 1008.1
20260505223939 48 354 0.0 1.0 0.00 0.00 0.03 99 1008.3
20260505222812 48 210 1.0 1.0 0.00 0.00 0.03 98 1008.3
20260505221556 48 240 0.0 0.0 0.00 0.00 0.03 98 1008.4
20260505220415 49 210 0.0 0.0 0.00 0.00 0.03 98 1008.3
20260505215246 49 234 0.0 0.0 0.00 0.00 0.03 98 1008.4
20260505214119 49 168 0.0 1.0 0.00 0.00 0.03 97 1008.5
20260505212951 49 150 0.0 0.0 0.00 0.00 0.03 98 1008.4
20260505211735 49 6 0.0 0.0 0.00 0.00 0.03 98 1008.6
20260505210554 49 270 0.0 0.0 0.00 0.00 0.03 96 1008.6
20260505205428 50 198 0.0 0.0 0.00 0.00 0.03 96 1008.6
20260505204301 50 354 0.0 0.0 0.00 0.00 0.03 96 1008.6
20260505203133 50 180 0.0 0.0 0.00 0.00 0.03 97 1008.6
20260505202005 51 246 0.0 0.0 0.00 0.00 0.03 97 1008.5
20260505200838 51 18 0.0 0.0 0.00 0.00 0.03 97 1008.3
20260505195723 51 216 0.0 0.0 0.00 0.00 0.03 97 1008.2
20260505194541 51 258 0.0 0.0 0.00 0.00 0.03 96 1008.0
20260505193414 52 204 0.0 0.0 0.00 0.00 0.03 95 1007.9
20260505192245 53 252 0.0 0.0 0.00 0.00 0.03 94 1007.8
20260505191118 53 204 0.0 0.0 0.00 0.00 0.03 93 1007.7
20260505185950 54 258 0.0 0.0 0.00 0.00 0.03 92 1007.5
20260505184823 55 258 0.0 0.0 0.00 0.00 0.03 91 1007.2
20260505183709 56 228 0.0 0.0 0.00 0.00 0.03 90 1007.4
20260505182528 57 240 0.0 0.0 0.00 0.00 0.03 88 1007.2
20260505181400 57 12 0.0 0.0 0.00 0.00 0.03 87 1007.0
20260505180232 57 300 0.0 0.0 0.00 0.00 0.03 87 1007.2